Regional Weather Roundup
Issued by NWS

Home | Current Version | Previous Version | Text Only | Print | Product List | Glossary On
Versions: 1 2 3 4 5 6 7 8 9 10 11 12 13 14 15 16 17 18 19 20 21 22 23 24 25 26 27 28 29 30 31 32 33 34 35 36 37 38 39 40 41 42 43 44 45 46 47 48 49 50
413
ASUS43 KDTX 241601
RWRMI
MICHIGAN HOURLY REGIONAL WEATHER ROUNDUP
NATIONAL WEATHER SERVICE DETROIT/PONTIAC MI
1200 PM EDT WED AUG 24 2016

NOTE: "FAIR" INDICATES FEW OR NO CLOUDS BELOW 12,000 FEET WITH NO
SIGNIFICANT WEATHER AND/OR OBSTRUCTION TO VISIBILITY.

MIZ047>049-052>055-059>063-066>070-074>076-081>083-241700-
SOUTHEAST LOWER MICHIGAN

CITY           SKY/WX    TMP DP  RH WIND       PRES   REMARKS
ADRIAN         PTSUNNY   79  69  71 S14       30.10F
ALMA           CLOUDY    77  70  79 S13G24    30.01F
ANN ARBOR      PTSUNNY   78  66  66 SE10G20   30.08F
BAD AXE        CLOUDY    76  63  63 S16G26    30.05F
CARO           MOSUNNY   79  65  61 S14G20    30.04F
DETROIT CITY   CLOUDY    80  64  58 S15G22    30.11F
DETROIT        PTSUNNY   80  65  59 S10       30.10F
FLINT          MOSUNNY   81  65  58 SW15G21   30.06F
GROSSE ILE     PTSUNNY   78  67  68 S12       30.10F
HILLSDALE      PTSUNNY   76  67  76 S12G17    30.09S
HOWELL         CLOUDY    78  66  67 S10       30.07F

CITY           SKY/WX    TMP DP  RH WIND       PRES   REMARKS
JACKSON        MOSUNNY   79  69  71 S13       30.07F
LAMBERTVILLE   MOSUNNY   80  66  61 S9        30.11F
LANSING        CLOUDY    78  67  68 S12G24    30.04F
LAPEER         NOT AVBL
MASON          CLOUDY    78  67  69 S10G21    30.06S
MONROE         PTSUNNY   79  67  67 S9G21     30.09F
MT. CLEMENS    MOSUNNY   81  66  61 S16       30.08F
PONTIAC        PTSUNNY   78  62  57 S12G18    30.08F
PORT HURON     MOSUNNY   79  64  61 S16G22    30.11S
TRI CITIES     MOSUNNY   79  68  69 S17       30.02F
MIDLAND        PTSUNNY   79  66  64 S9G20     29.99F
TROY           MOSUNNY   81  59  47 S12G23    30.11F
SAGINAW HB     SUNNY     79  66  65 S14       30.02F
$$
MIZ043>046-050>051-056>058-064>065-071>073-077>080-241700-
SOUTHWEST LOWER MICHIGAN

CITY           SKY/WX    TMP DP  RH WIND       PRES   REMARKS
BATTLE CREEK   CLOUDY    73  70  90 S15       30.06S
BENTON HARBOR  CLOUDY    76  69  79 S10       30.00F
BIG RAPIDS     CLOUDY    74  69  82 S6G17     29.98F
COLDWATER      CLOUDY    76  69  78 S7        30.08S
FREMONT        CLOUDY    73  71  91 S7        29.96F
HOLLAND        CLOUDY    74  70  87 S9        30.00F
GRAND RAPIDS   LGT RAIN  74  68  81 SW10      30.02S
IONIA          HVY RAIN  74  67  79 S10G18    30.02S
KALAMAZOO      CLOUDY    75  68  78 S10       30.04F
LUDINGTON      CLOUDY    73  71  96 SW16      29.92S
MARSHALL       CLOUDY    75  70  83 S9        30.06S
MOUNT PLEASANT CLOUDY    76  67  72 S13G21    30.00R
MUSKEGON       PTSUNNY   77  71  82 S16G25    29.96F
SOUTH HAVEN    CLOUDY    76  71  84 S9        30.00F
$$
MIZ016>042-241700-
NORTHERN LOWER MICHIGAN

CITY           SKY/WX    TMP DP  RH WIND       PRES   REMARKS
ALPENA         CLOUDY    72  65  78 S14       29.97F
BEAVER ISLAND  LGT RAIN  65  65  98 E7        29.87F
BELLAIRE       RAIN      71  67  86 S8        29.90S
CADILLAC       CLOUDY    71  66  86 S12G18    29.95F
CHARLEVOIX     LGT RAIN  70  69  96 S13G18    29.91S
FRANKFORT      LGT RAIN  73  69  89 S13G18    29.90S
GAYLORD        CLOUDY    69  64  84 S13       29.95F
GRAYLING       LGT RAIN  68  65  92 S8        29.97F
HARBOR SPRINGS RAIN      68  67  96 SW3       29.89F
HOUGHTON LAKE  CLOUDY    71  65  81 S9        29.99F
MANISTEE       LGT RAIN  73  70  90 S10G17    29.89F
OSCODA         CLOUDY    73  64  71 S10G23    30.01F
PELLSTON       LGT RAIN  65  63  93 S3        29.90S FOG
ROGERS CITY    CLOUDY    71  63  74 S16G23    29.94F
TRAVERSE CITY  LGT RAIN  72  68  87 SW7G17    29.88F FOG
$$
MIZ007>008-015-241700-
EASTERN UPPER MICHIGAN

CITY           SKY/WX    TMP DP  RH WIND       PRES   REMARKS
KINROSS        RAIN      64  63  96 SE12      29.92F FOG
MACKINAC ISLAN HVY RAIN  64  64 100 E3        29.92S
NEWBERRY       LGT RAIN  65  65  97 SE13G18   29.87S
S. S. MARIE    HVY RAIN  65  64  97 SE9       29.92F FOG
$$
MIZ004>006-011>014-085-241700-
CENTRAL UPPER MICHIGAN

CITY           SKY/WX    TMP DP  RH WIND       PRES   REMARKS
MANISTIQUE     RAIN      67  64  92 SE13      29.85S
ESCANABA       CLOUDY    69  68  96 S8G17     29.83
MENOMINEE      CLOUDY   N/A N/A N/A VRB6        N/A
SAWYER-GWINN   CLOUDY    66  66 100 SW7       29.84F FOG
$$
MIZ001>003-009>011-084-241700-
WESTERN UPPER MICHIGAN

CITY           SKY/WX    TMP DP  RH WIND       PRES   REMARKS
IRON MOUNTAIN  LGT RAIN  68  66  93 S3        29.83S FOG
HOUGHTON       PTSUNNY   71  63  75 SW6       29.80F
COPPER HARBOR    N/A     71  65  81 SW13G20   29.78F
IRONWOOD       CLOUDY    71  66  84 W8        29.83R
$$

ABBREVIATIONS USED IN REMARKS
   TC - TEMPERATURE IN CELSIUS
  WCI - WIND CHILL INDEX
   HX - HEAT INDEX
  VSB - VISIBILITY





USA.gov is the U.S. government's official web portal to all federal, state and local government web resources and services.